Theta_e
305 305 305 305 306 308 314 308 328 318 319 327 321 326 324 321 326 323 325 325 327 326 324 325 326 325 326 326 323 325 324 326 328 327 325 323 325 327 326 328 329 323 325 327
306 305 305 305 306 308 310 316 318 318 318 329 326 322 323 322 322 322 323 323 322 324 326 328 324 328 327 324 330 326 323 325 329 329 325 323 325 324 326 325 325 331 330 330
305 305 304 304 305 307 312 319 326 322 319 317 322 324 324 322 320 320 320 321 322 324 326 325 327 328 326 324 327 329 324 325 328 329 329 327 329 325 321 325 328 330 328 329
305 305 304 304 305 307 312 316 320 316 325 323 319 318 320 322 324 320 319 322 322 324 327 329 328 327 326 324 323 326 329 331 326 328 328 328 330 330 326 323 327 329 329 328
304 305 304 304 304 306 310 318 318 315 318 316 318 317 320 321 320 321 321 322 322 321 328 326 328 324 325 329 325 326 325 332 332 333 331 330 333 332 329 325 324 324 326 329
304 305 305 304 304 305 308 307 308 313 312 318 319 319 320 320 319 320 319 320 321 321 321 320 321 321 319 321 324 327 328 330 332 333 331 332 333 332 332 331 328 328 330 330
304 304 306 304 304 304 304 305 307 315 315 316 317 318 317 318 318 320 319 320 322 319 317 318 316 317 318 318 320 321 328 329 329 331 331 336 330 329 330 331 331 328 329 331
304 305 306 305 304 304 304 306 308 314 315 315 315 316 316 316 316 317 318 319 318 316 318 322 323 322 321 321 320 321 320 327 328 330 329 329 328 329 333 336 335 335 336 336
304 305 306 305 305 304 304 305 306 309 315 313 313 316 316 316 317 317 318 317 316 318 321 321 325 325 323 324 323 317 318 320 326 327 329 330 326 326 333 334 336 335 335 336
302 304 305 305 305 304 303 304 305 308 312 313 313 315 314 314 315 318 316 316 317 316 322 322 323 323 322 324 324 325 325 325 325 326 327 326 328 330 333 338 336 335 335 335
302 303 304 304 304 304 303 303 304 306 309 310 310 312 314 314 315 315 314 315 316 320 323 325 324 324 324 326 323 325 326 326 326 327 329 329 331 331 336 335 333 335 335 335
303 304 304 303 303 303 303 304 304 304 306 308 307 308 310 311 311 314 313 315 316 317 323 325 326 329 327 328 327 328 332 329 329 331 327 328 329 326 325 330 333 332 334 334
303 302 303 303 303 303 303 304 303 303 305 307 307 310 309 308 308 310 312 313 313 314 315 318 322 327 326 328 329 328 328 329 333 330 327 328 326 323 329 330 331 330 330 331
302 302 302 303 304 304 303 303 303 303 304 309 310 307 309 309 308 310 310 311 310 311 313 317 318 319 321 322 324 326 324 327 327 328 325 323 321 329 329 327 326 328 330 330
302 302 303 303 304 304 303 303 303 303 305 310 311 309 309 309 309 310 310 310 311 313 315 318 319 318 318 319 319 320 320 322 324 324 322 325 324 321 322 326 326 325 330 331
302 303 303 303 304 303 302 308 306 305 302 308 314 310 311 310 310 310 310 311 311 313 316 318 318 317 319 320 320 318 318 320 319 321 320 320 322 322 323 325 325 325 329 330
305 304 303 303 303 303 303 307 307 305 306 310 313 312 311 309 312 314 312 311 313 314 315 316 319 320 317 321 324 320 319 319 320 320 321 321 321 324 324 321 320 325 329 330
303 303 303 303 303 303 305 307 306 305 304 307 313 313 313 312 319 322 316 319 316 317 319 319 321 321 321 323 321 320 320 320 320 321 320 320 320 321 321 321 325 328 329 330
303 303 303 304 305 305 308 308 311 306 307 312 312 314 318 312 317 316 319 319 324 318 322 321 321 323 324 322 322 321 321 321 322 323 323 324 325 325 327 328 329 330 330 330
305 305 307 311 309 312 311 310 310 309 310 310 312 310 314 312 317 320 320 319 325 326 322 320 322 323 321 321 323 324 324 326 326 327 328 327 327 327 327 328 328 330 330 330
307 307 310 308 307 312 312 315 315 313 315 314 314 313 315 316 320 322 321 323 322 324 323 326 327 327 327 324 324 323 325 326 326 326 327 327 329 330 330 330 329 330 330 330
305 305 305 306 310 314 315 318 318 317 319 319 319 320 317 317 316 319 321 323 322 325 323 323 327 327 324 322 323 322 322 325 325 326 327 328 329 330 331 331 331 330 330 330
306 307 309 310 312 314 319 318 319 320 320 320 321 321 320 319 317 322 322 322 324 322 323 323 322 320 320 320 320 322 324 326 327 327 326 327 328 328 330 331 329 329 330 330
307 311 311 312 314 315 317 318 319 319 319 321 318 319 322 321 322 322 322 322 323 320 318 320 320 319 318 321 324 326 327 327 327 327 327 327 328 329 328 328 328 328 330 329
310 311 312 314 313 312 313 314 317 318 318 317 320 319 318 321 322 323 323 323 320 319 322 321 321 324 323 323 325 326 327 327 328 327 327 327 329 330 329 328 329 329 330 330
306 307 310 312 312 314 313 313 315 314 316 318 318 321 323 323 321 322 320 322 322 320 323 324 323 323 322 323 325 326 327 328 327 327 327 328 329 330 328 326 328 330 330 331
306 308 308 309 311 311 312 312 312 312 320 322 321 322 324 321 321 321 322 324 323 321 323 322 322 322 322 322 323 325 327 326 328 328 327 326 327 329 329 330 331 330 330 330
Wind_Speed
29 32 35 39 40 38 19 4 1 5 5 1 1 2 2 2 2 2 1 1 3 3 2 4 4 5 2 3 4 7 8 4 7 13 1 2 5 10 9 8 5 2 3 10
28 30 34 37 38 30 11 3 2 4 3 2 2 1 2 2 3 3 3 2 1 1 2 4 3 4 2 5 3 5 7 4 4 4 4 3 6 8 15 9 4 12 11 10
26 29 32 35 34 25 7 2 1 2 3 2 1 1 0 2 2 1 3 3 0 1 2 0 3 5 2 2 2 4 4 3 5 10 6 2 5 6 9 15 9 10 11 15
24 26 29 33 33 20 6 4 2 2 3 2 2 1 1 1 1 2 3 2 4 2 3 1 3 2 1 1 2 3 3 8 4 9 10 8 11 14 9 12 16 10 12 10
21 23 26 29 34 19 6 3 3 1 1 3 3 1 3 3 1 2 1 3 6 2 3 1 3 1 2 3 1 3 2 4 3 5 9 8 11 13 12 13 12 11 8 10
19 19 22 25 28 19 7 4 1 2 1 1 2 1 1 2 3 3 1 5 4 4 1 7 9 8 8 5 3 2 2 4 4 11 7 10 15 12 16 15 11 12 12 13
16 16 18 19 21 22 7 3 2 2 1 2 2 2 3 5 4 4 6 8 3 3 10 7 3 5 7 7 10 6 3 3 3 7 7 16 7 3 8 10 14 13 11 10
14 14 15 16 16 17 11 4 2 2 3 3 6 4 5 6 5 5 6 6 3 7 4 3 4 4 4 9 14 14 11 9 7 9 12 15 15 12 4 3 6 5 6 8
11 12 13 14 14 14 14 4 5 1 3 2 4 2 2 3 3 4 3 3 7 2 2 3 6 7 5 5 4 3 6 8 9 7 12 17 10 17 3 2 12 7 6 8
9 10 10 10 12 12 13 2 9 1 2 3 3 4 2 1 1 3 4 5 2 2 3 7 9 11 3 9 13 7 5 4 13 13 12 9 3 7 2 10 2 9 10 9
9 9 9 9 10 10 9 4 4 4 3 8 7 4 6 3 3 3 2 4 3 2 4 3 3 4 4 5 6 6 11 7 6 5 8 13 5 3 5 6 6 8 9 9
9 9 8 7 8 7 7 1 7 7 6 5 5 13 14 14 13 2 2 3 2 2 1 2 1 3 2 2 7 2 5 6 5 6 4 2 3 6 9 6 7 9 10 11
8 8 8 7 7 7 5 6 8 4 3 6 4 3 2 9 23 24 5 3 3 2 2 2 1 5 1 3 4 3 3 4 4 3 6 3 5 12 6 4 6 10 12 13
7 7 8 8 9 9 10 9 8 3 4 3 3 4 9 9 10 18 31 9 1 3 2 3 3 4 3 5 5 5 4 2 4 5 10 13 10 1 4 9 11 12 12 13
9 10 9 9 10 10 13 17 14 10 3 3 6 22 4 2 3 12 18 19 11 4 3 4 4 3 4 6 5 11 10 11 9 12 14 12 17 16 15 12 12 14 11 14
11 11 10 8 10 10 7 1 3 4 9 2 4 5 4 6 6 11 15 14 7 5 4 4 4 4 4 7 10 13 13 15 17 16 15 17 17 17 14 16 15 16 11 11
11 12 11 9 9 9 3 2 2 11 2 2 4 5 3 5 4 2 3 10 4 4 3 4 4 9 5 9 15 20 17 17 16 16 15 16 16 12 11 11 16 15 15 13
12 11 9 9 10 11 5 2 9 14 3 2 3 4 4 5 3 1 2 4 4 5 4 3 6 3 3 6 12 12 7 5 9 12 12 17 17 15 16 15 13 15 14 11
10 9 9 3 2 1 3 7 3 13 2 2 2 3 3 5 2 2 2 2 4 2 4 3 3 5 6 9 8 7 7 7 13 13 12 10 11 13 12 12 14 15 14 12
6 2 1 1 0 6 3 2 1 2 2 2 3 2 3 1 2 2 3 1 2 2 1 1 4 6 10 9 7 7 9 10 10 10 11 9 10 12 14 14 13 13 13 11
2 3 1 4 3 2 1 2 3 2 3 3 3 5 4 3 4 3 1 2 1 2 0 3 2 3 0 7 10 9 14 13 12 12 14 13 13 13 13 14 14 12 12 11
5 5 5 4 1 2 2 2 2 3 3 3 3 3 4 3 3 2 2 3 1 3 4 3 4 4 8 9 12 16 16 14 12 11 12 13 13 14 15 15 13 12 14 12
1 2 2 1 1 1 3 3 2 2 2 3 2 3 2 2 2 3 1 3 2 2 1 2 3 10 12 12 12 14 13 13 11 11 11 12 12 15 14 11 16 12 11 10
1 1 2 3 3 4 2 2 2 2 4 5 2 3 2 0 1 2 3 2 2 1 2 4 5 11 15 13 11 10 12 12 12 11 11 10 10 9 8 13 11 9 8 8
1 1 3 4 3 4 4 4 3 3 2 3 2 2 1 1 3 2 3 4 3 2 4 4 6 15 14 12 10 11 11 10 10 10 10 10 7 6 6 9 7 6 5 5
1 3 3 4 3 3 2 3 3 2 3 1 1 2 1 2 3 3 2 4 3 3 5 10 11 14 14 12 10 12 11 10 9 8 10 10 7 5 4 4 5 6 6 6
3 4 5 6 6 6 4 2 3 3 3 3 1 3 3 2 2 2 2 2 5 8 10 8 10 12 13 14 13 10 10 10 10 12 10 9 6 3 4 4 3 8 11 11
Wind_Direction
356 356 357 359 357 355 356 347 116 344 352 154 26 160 203 312 311 2 303 246 259 260 222 198 202 165 200 350 185 161 188 207 243 234 245 286 246 260 215 248 213 235 300 270
356 357 358 360 1 2 350 19 308 352 350 232 133 294 275 279 329 339 350 306 1 254 234 219 193 168 147 11 159 167 169 210 249 233 155 146 223 209 225 236 248 241 258 268
356 358 359 359 1 358 4 333 320 20 59 24 69 20 4 272 338 274 352 295 313 319 193 42 186 172 186 340 65 46 183 180 252 267 311 9 248 231 224 231 231 232 238 265
356 358 359 360 3 358 10 9 58 27 356 73 19 261 307 246 295 358 359 185 41 321 252 213 211 196 236 220 55 95 226 253 216 261 270 259 262 268 232 220 244 225 248 215
355 358 1 2 5 8 60 360 348 9 304 296 276 213 192 221 269 279 267 305 330 332 216 351 235 284 197 228 183 180 163 222 188 263 275 274 265 266 270 236 232 253 267 253
353 357 2 5 9 18 39 14 350 288 32 324 264 216 163 173 352 231 314 6 304 240 80 318 290 273 290 292 278 221 239 184 206 260 267 293 272 250 250 248 235 235 243 250
350 356 359 6 11 18 19 11 319 308 289 275 257 300 338 283 299 281 294 319 273 36 318 276 233 239 253 252 255 245 213 204 206 264 261 255 264 289 287 268 274 252 259 259
347 354 356 1 7 9 17 20 348 349 289 293 283 280 264 289 284 255 258 278 0 329 321 276 255 233 245 236 233 230 226 234 237 240 242 265 266 279 311 357 304 28 308 319
341 351 355 356 359 1 6 21 18 334 301 217 286 301 315 301 299 281 249 326 330 305 250 212 234 234 232 217 187 62 201 235 234 226 247 255 260 246 119 181 263 13 350 340
333 339 344 350 355 355 2 39 16 300 281 271 232 232 263 201 236 273 298 341 334 347 211 232 239 243 243 238 239 209 193 191 221 229 245 259 282 317 145 220 285 345 346 339
329 333 330 335 344 352 2 324 40 8 285 279 240 244 237 232 231 254 2 287 182 244 228 238 211 238 209 246 242 222 216 222 228 220 234 250 11 169 263 359 321 323 330 330
332 335 332 326 336 349 351 351 340 318 238 276 269 259 255 247 253 251 205 325 305 287 253 225 263 245 234 260 244 184 230 231 236 223 240 129 12 335 308 279 292 312 310 322
339 340 339 333 337 342 332 309 320 314 275 285 277 242 250 237 233 229 243 218 252 236 309 301 270 266 202 252 241 280 217 199 234 245 223 268 295 308 284 278 299 313 310 307
323 329 326 326 324 319 309 300 295 279 276 290 288 308 291 276 250 212 215 232 107 337 299 264 256 254 206 263 286 258 280 203 264 264 288 303 300 358 317 302 299 298 306 305
315 319 315 307 316 311 304 296 281 237 244 302 295 305 285 222 218 203 210 225 239 267 254 240 243 250 238 239 259 255 236 251 257 267 278 273 276 285 290 272 294 301 296 303
311 313 313 311 314 311 323 242 17 181 186 279 301 325 279 304 248 222 219 218 214 219 225 233 229 239 239 264 261 263 263 249 254 259 262 273 267 278 279 271 282 290 281 291
310 305 307 296 299 301 244 325 94 147 18 265 298 297 283 295 274 165 150 180 195 213 226 228 234 254 208 263 268 272 271 263 254 253 266 265 251 266 271 280 286 272 280 288
313 308 302 292 284 286 292 6 226 219 279 273 287 287 303 6 295 278 167 184 201 210 249 239 245 220 223 260 263 271 275 278 267 267 253 255 269 270 274 271 268 267 272 281
315 307 301 289 214 219 358 15 214 193 251 295 281 294 312 344 295 289 246 237 236 146 245 234 232 223 226 245 272 274 285 279 288 292 270 255 255 267 268 267 266 263 271 274
329 342 269 199 313 310 214 252 145 180 211 225 255 234 256 341 312 287 286 179 286 262 201 133 226 252 266 297 315 304 292 292 289 275 278 259 249 253 255 258 260 263 270 268
2 356 308 309 313 212 229 240 199 164 237 212 234 218 255 210 238 274 310 318 273 271 351 266 233 249 311 350 329 326 316 306 289 270 271 277 271 270 270 268 261 259 260 246
323 295 299 306 249 223 254 240 151 219 256 192 223 247 220 263 217 240 214 272 183 254 350 310 300 358 317 310 307 312 300 296 290 286 280 273 267 269 270 264 259 248 244 239
309 259 250 255 190 289 234 191 207 246 224 231 251 290 255 247 200 269 293 286 281 352 230 279 254 266 283 285 286 288 289 293 291 292 288 280 278 278 266 245 242 244 238 234
246 236 280 228 207 243 220 238 308 277 250 289 278 264 258 25 282 259 267 268 276 24 291 251 262 274 289 299 304 303 305 308 305 301 297 293 289 290 255 233 226 215 228 233
266 276 249 227 272 271 280 292 276 258 286 291 277 254 274 302 299 266 306 342 343 296 256 251 294 306 306 307 310 314 311 313 309 308 305 303 307 296 252 222 220 220 223 210
252 244 265 244 273 275 297 299 284 348 325 264 225 289 269 357 338 356 323 288 248 263 269 302 307 306 313 312 318 319 317 322 314 307 309 302 300 290 244 225 227 256 248 240
230 238 236 262 278 270 275 271 282 345 313 328 351 356 2 276 293 263 215 245 263 286 301 301 294 290 297 298 303 312 323 328 329 325 322 315 304 189 172 214 226 272 255 222